www.pogodaiklimat.ru

Погода и климат >> Архив погоды >> Греция >> Салоники


ПОГОДА в Салониках

  • Прогноз погоды в Салониках
  • Монитор погоды в Салониках

АРХИВ ПОГОДЫ в Салониках

Время (UTC), дата Ветер
(напр.,м/с)
 
Видим.   Явления Облачность Т
(С)
Тd
(С)
f
(%)
Тe
(С)
Тes
(С)
Комфортность P
(гПа)
Po
(гПа)
Тmin
(С)
Tmax
(С)
R
(мм)
R24
(мм)
S
(см)
06 12.07 нст 2
{4}
10 км 4/0 2000 м
[Ac trans]
+23.6 +14.1 55 +26 +31 жарко 1012.0 1011.1 +17.8 265
09 12.07 З 5
{8}
10 км 1/1 600 м
[Cu hum]
+25.4 +13.8 49 +28 +37 жарко 1012.4 1012.4
12 12.07 З 4
{8}
10 км 3/1 600 м
[Cu hum Ac trans]
+28.6 +9.9 31 +29 +38 жарко 1011.4 1011.4
15 12.07 СЗ 3
{5}
10 км 3/1 600 м
[Cu hum Ac trans]
+28.8 +12.1 36 +30 +33 жарко 1010.0 1009.9
18 12.07 Ю 2
{8}
10 км 8/3 750 м
[Cu hum Ac und]
+26.2 +13.4 45 +28 +28 жарко 1010.1 1010.1 +29.2
21 12.07 нст 2
{7}
10 км 6/4 750 м
[Sc diur, vesp Ac und]
+23.8 +15.7 60 +27 +27 жарко 1011.7 1011.7
00 13.07 нст 2
{5}
10 км 8/4 750 м
[Sc diur, vesp Ac trans]
+21.6 +16.7 74 +26 +26 душно 1011.7 1011.6
03 13.07 ЮВ 2
{3}
10 км 5/3 750 м
[Cu hum Ac trans]
+20.0 +16.9 82 +23 +23 комфорт 1011.2 1011.2
06 13.07 нст 1
{3}
10 км 3/1 600 м
[Cu hum Ac trans]
+24.0 +17.2 66 +28 +33 душно 1011.6 1011.5 +20.0
09 13.07 СЗ 3
{6}
10 км 1/1 600 м
[Cu hum]
+25.8 +17.2 59 +30 +43 душно 1010.9 1010.9
12 13.07 ЮЗ 5
{9}
10 км 4/3 750 м
[Cu hum Cs]
+30.0 +11.5 32 +31 +38 жарко 1009.4 1009.3
15 13.07 Ю 7
{9}
10 км 6/3 750 м
[Cu hum Ac trans Cs]
+29.0 +14.9 42 +31 +32 жарко 1007.4 1007.3
18 13.07 ЮВ 4
{10}
10 км 8/0 2000 м
[Ac und Cs]
+25.6 +17.4 61 +30 +30 душно 1006.9 1006.9 +30.3
21 13.07 ЮВ 3
{6}
10 км 9/6 540 м
[Cu Sc Ac cuf]
+24.6 +16.5 61 +28 +28 душно 1007.4 1007.4
00 14.07 В 3
{7}
10 км в посл. час гроза {дождь} 9/4 900 м
[Sc Ac As]
+19.0 +17.7 92 +21 +21 комфорт 1006.3 1006.3 19
03 14.07 нст 2
{3}
10 км 8/4 900 м
[Sc Ac und]
+19.2 +17.8 92 +22 +22 комфорт 1006.4 1006.3
06 14.07 С 2
{5}
10 км дождь {гроза} 9/6 360 м
[Cb cap Ac As]
+20.6 +16.9 79 +25 +26 комфорт 1006.2 1006.2 +18.4 21
09 14.07 нст 1
{8}
10 км {дождь} 8/5 450 м
[Frnb Ac cuf]
+23.8 +17.0 66 +28 +34 душно 1006.7 1006.6
12 14.07 СЗ 5
{8}
10 км 4/4 600 м
[Sc Ac cuf]
+27.6 +13.7 42 +29 +35 жарко 1005.5 1005.5
15 14.07 СЗ 7
{13}
10 км 3/3 600 м
[Sc diur, vesp Ac cuf]
+28.2 +13.7 41 +30 +31 жарко 1005.0 1004.9
18 14.07 С 5
{12}
10 км 3/1 600 м
[Cu hum Ac lent Ci fib]
+26.8 +13.1 43 +29 +29 жарко 1006.4 1006.3 +28.3
21 14.07 СВ 2
{10}
10 км 3/1 600 м
[Cu hum Ci fib]
+23.4 +13.1 52 +26 +26 жарко 1007.8 1007.7
00 15.07 С 4
{8}
10 км 1/1 600 м
[Cu hum]
+21.4 +13.7 61 +24 +24 комфорт 1008.2 1008.2
03 15.07 С 3
{9}
10 км ясно +21.0 +13.1 61 +24 +24 комфорт 1008.8 1008.7
06 15.07 СЗ 6
{8}
10 км ясно +23.0 +13.3 54 +26 +29 жарко 1008.7 1008.6 +19.7
09 15.07 СЗ 3
{9}
10 км 6/1 750 м
[Cu hum Ci fib]
+26.2 +12.4 42 +28 +39 жарко 1009.6 1009.4
12 15.07 З 5
{9}
10 км 5/1 750 м
[Cu hum Ac trans Cs]
+27.8 +15.1 46 +30 +38 жарко 1008.3 1008.3
15 15.07 Ю 6
{10}
10 км 4/1 600 м
[Cu hum Ac lent Ci fib]
+27.8 +13.4 41 +30 +31 жарко 1007.6 1007.5
18 15.07 Ю 5
{9}
10 км 3/3 600 м
[Cu hum Ac lent Ci fib]
+24.8 +16.9 61 +28 +28 жарко 1008.2 1008.2 +28.1
21 15.07 ЮВ 3
{5}
10 км 4/1 750 м
[Cu hum Ac lent]
+22.2 +18.5 80 +27 +27 душно 1009.3 1009.2
00 16.07 нст 1
{4}
10 км 9/1 750 м
[Cu hum Ac und]
+20.6 +18.1 86 +25 +25 комфорт 1009.1 1009.1
03 16.07 нст 1
{2}
10 км 9/5 540 м
[Cb cap Ac und]
+22.4 +18.4 78 +28 +28 душно 1008.6 1008.6
06 16.07 СЗ 4
{7}
10 км слаб. дождь 9/5 360 м
[Frnb Ac As]
+22.6 +18.5 78 +28 +29 душно 1009.0 1009.0 +20.3 1
09 16.07 СЗ 5
{6}
10 км гроза без осадков 9/6 300 м
[Cb cap Ac As]
+24.2 +17.6 67 +28 +30 душно 1008.7 1008.6
12 16.07 нст 1
{7}
8000 м дождь {гроза} 9/6 240 м
[Cb cap Ac As]
+19.8 +18.4 92 +24 +28 комфорт 1009.6 1009.5 4
15 16.07 СЗ 4
{7}
8000 м дождь 9/6 240 м
[Frnb Ac As]
+20.6 +18.4 87 +25 +25 комфорт 1009.4 1009.4
18 16.07 СЗ 4
{7}
10 км слаб. дождь 10/6 300 м
[Frnb Ac As]
+21.4 +17.6 79 +26 +26 душно 1009.2 1009.1 +24.2 7
21 16.07 С 5
{11}
10 км {дождь} 10/5 300 м
[Frnb Ac As]
+22.0 +16.7 72 +26 +26 душно 1009.2 1009.1
00 17.07 СЗ 8
{12}
10 км {дождь} 8/6 360 м
[Frnb Ac As]
+21.8 +17.8 78 +26 +26 душно 1008.3 1008.3 0.0
03 17.07 СЗ 5
{11}
10 км 9/5 750 м
[Sc Ac As]
+21.2 +18.3 84 +25 +25 комфорт 1008.4 1008.4
06 17.07 СЗ 3
{7}
10 км 9/5 750 м
[Sc Ac As]
+22.0 +17.0 73 +26 +27 душно 1009.7 1009.6 +21.2
09 17.07 З 4
{7}
10 км 3/3 600 м
[Cu med, cong Ac cuf]
+25.6 +15.4 53 +29 +37 душно 1009.6 1009.5
12 17.07 З 5
{8}
10 км 5/4 750 м
[Cu med, cong Ac und]
+28.4 +13.4 40 +30 +36 жарко 1009.3 1009.1
15 17.07 З 3
{7}
10 км 3/3 600 м
[Cu hum]
+29.0 +13.9 40 +31 +34 жарко 1008.4 1008.3
18 17.07 ЮВ 2
{6}
10 км 1/1 600 м
[Cu hum Ac lent]
+25.8 +15.0 51 +29 +29 душно 1008.6 1008.4 +29.0
21 17.07 В 3
{5}
10 км 4/3 900 м
[Cu hum Ac und]
+21.8 +16.5 72 +26 +26 душно 1009.6 1009.5
00 18.07 В 2
{5}
10 км 6/3 900 м
[Cu hum Ac und]
+21.0 +16.3 75 +25 +25 комфорт 1009.8 1009.8
03 18.07
{4}
10 км 3/3 600 м
[Cu hum Ac und]
+19.6 +16.0 80 1010.3 1010.2
06 18.07 нст 2
{3}
10 км 4/3 600 м
[Cu hum Ac und]
+24.2 +17.9 68 +28 +32 душно 1011.4 1011.3 +19.0
09 18.07 З 3
{7}
10 км 1/1 600 м
[Cu hum]
+28.0 +14.6 44 +30 +43 жарко 1011.8 1011.8
12 18.07 З 5
{8}
10 км 3/3 600 м
[Cu hum]
+29.4 +16.2 45 +33 +40 душно 1011.3 1011.2
15 18.07 ЮЗ 4
{7}
10 км 3/3 600 м
[Cu hum]
+31.0 +12.9 33 +32 +35 жарко 1010.5 1010.4
18 18.07 Ю 5
{9}
10 км 3/3 600 м
[Cu hum]
+27.2 +16.9 53 +31 +31 душно 1011.2 1011.1 +31.0
21 18.07 ЮВ 3
{7}
10 км 3/3 600 м
[Cu hum]
+22.8 +17.7 73 +28 +28 душно 1012.8 1012.8
00 19.07 ЮВ 2
{4}
10 км 3/3 600 м
[Cu hum Ac lent]
+22.0 +14.9 64 +25 +25 комфорт 1013.7 1013.7
03 19.07
{4}
10 км 3/3 600 м
[Cu hum Ac lent]
+19.0 +15.3 79 1014.0 1014.0

 

Местоположение метеостанции Салоники (Греция): широта 40.52 долгота 22.97 высота над уровнем моря 4 м.

В архиве по умолчанию представлена погода в Салониках за последнюю неделю. Архивные данные за месяц целиком и за предыдущие месяцы, начиная с января 2011 года, Вы можете получить, выбрав интересующий диапазон дат из раскрывающегося списка и нажав кнопку "Ввод!".


*Определитесь, кто Вы:
робот инопланетянин человек

Внимание! Время в таблицах - всемирное. Для получения местного времени необходимо прибавить поправку, которая равна 2 ч.

Смотрите также архив погоды в соседних городах и на ближайших метеорологических станциях:

Погода в Серре (Греция) (79 км)
Погода в Гевгелии (Македония) (80 км)
Погода в Козани (Греция) (104 км)
Погода в Струмице (Македония) (105 км)
Погода в Ларисе (Греция) (110 км)
Погода в Сандански (Болгария) (114 км)
Погода в Демир-Капия (Македония) (117 км)
Погода в Доксато (Греция) (124 км)
Погода в Берово (Македония) (134 км)
Погода во Флорине (Греция) (136 км)

Пояснения к столбцам:

Ветер - указаны скорость ветра в м/с - средняя за 10 мин, порывы в срок и между сроками (в фигурных скобках) и направление, откуда дует ветер: С - северный, СВ - северо-восточный, В - восточный, ЮВ - юго-восточный, Ю - южный, ЮЗ - юго-западный, З - западный, СЗ - северо-западный.
Видимость - горизонтальная дальность видимости в метрах или километрах. При видимости от 1 до 10 км при отсутствии осадков обычно наблюдается дымка, при ухудшении видимости до 1 км и менее - туман. В сухую погоду видимость может ухудшаться дымом, пылью или мглою.
Явления - указаны атмосферные явления, наблюдавшиеся в срок или в последний час перед сроком; фигурными скобками обозначены явления, наблюдавшиеся между сроками (за 1-3 часа до срока); квадратными скобками обозначены град или гололедные отложения с указанием их диаметра в мм.
Облачность - указаны через наклонную черту общая и нижняя облачность в баллах и высота нижней границы облаков в метрах; квадратными скобками обозначены формы облаков: Ci - перистые, Cs - перисто-слоистые, Cc - перисто-кучевые, Ac - высококучевые, As - высокослоистые, Sc - слоисто-кучевые, Ns - слоисто-дождевые, Cu - кучевые, Cb - кучево-дождевые. Подробнее классификацию облаков см. в Атласе облаков (PDF).
T - Температура воздуха - температура, измеренная на высоте 2 м над землей.
Td - Температура точки росы - температура, при понижении до которой содержащийся в воздухе водяной пар достигнет насыщения.
f - Относительная влажность воздуха - влажноcть воздуха, измеренная на высоте 2 м над землей.
Te - Эффективная температура - температура, которую ощущает одетый по сезону человек в тени. Характеристика душности погоды. При расчете учитывается влияние влажности воздуха и скорости ветра на теплоощущения человека.
Tes - Эффективная температура на солнце - температура, которую ощущает человек, с поправкой на солнечный нагрев. Характеристика знойности погоды. Зависит от высоты солнца над горизонтом, облачности и скорости ветра. Ночью, в пасмурную погоду, а также при ветре 12 м/с и более поправка равна нулю.
P - Атмосферное давление - приведенное к уровню моря атмосферное давление.
Po - Атмосферное давление - измеренное на уровне метеостанции атмосферное давление.
Tmin - Минимальная температура - минимум температуры воздуха на высоте 2 м над землей.
Tmax - Максимальная температура - максимум температуры воздуха на высоте 2 м над землей.
R - Количество осадков - Количество выпавших осадков за период времени, мм. При наведении курсора мыши на число - период времени, за который выпало указанное количество осадков.
R24 - Количество осадков - Количество выпавших осадков за 24 часа, мм.
S - Снежный покров - Высота снежного покрова, см. При наведении курсора мыши на число - состояние снежного покрова и степень покрытия местности в баллах.